STARLINK-36088

Last updated on Fri Dec 19 2025 00:02:08 GMT+0000 (Coordinated Universal Time)

1 66941U 25286S 25352.58336806 -.01346888 00000+0 -71744-2 0 9999 2 66941 53.1558 21.0146 0001010 67.4801 66.3970 15.82633074 2931
UTC large
Height (km)
Speed (km/s)
/
Latitude / Longitude
Inclination (degrees)
Orbital Period (minutes)
Azimuth
Elevation
Range (km)
Doppler Factor

Next 0 passes for location: London (51.5072 / 0.1276)

Sorry there are no passes over London.